Location: *
(46.3500°N, 10.9000°E)
Time: 03:37:03
(UTC+00:00)

ASTEX 1 - Pass Details

Date: 09 April 2020
Orbit: 721 x 743 km, 92.7° (Epoch: 04 June)

Event Time Altitude Azimuth Distance (km) Brightness Sun altitude
Exits shadow 21:49:56 43° 327° (NNW) 1,041 4.5 -32.2°
Drops below altitude 10° 21:53:24 10° 348° (NNW) 2,249 6.7 -32.5°
Sets 21:55:44 0° 352° (N) 3,173 7.7 -32.6°
